| time (UTC) | temp C | wind direction | speed KPH | gust KPH | rain 1hr cm | rain 24hr cm | rain mn cm | humidity % | barometer mb |
| 20260906172525 | 25 | 216 | 1.6 | 1.6 | 0.00 | 0.00 | 0.00 | 57 | 1018.6 |
| 20260906171026 | 25 | 232 | 11.3 | 14.5 | 0.00 | 0.00 | 0.00 | 59 | 1018.7 |
| 20260906171004 | 25 | 232 | 9.7 | 14.5 | 0.00 | 0.00 | 0.00 | 59 | 1018.7 |
| 20260906170004 | 25 | 246 | 6.4 | 14.5 | 0.00 | 0.00 | 0.00 | 58 | 1019.0 |
| 20260906165526 | 25 | 233 | 8.0 | 14.5 | 0.00 | 0.00 | 0.00 | 59 | 1019.0 |
| 20260906165004 | 25 | 173 | 1.6 | 8.0 | 0.00 | 0.00 | 0.00 | 60 | 1018.9 |
| 20260906164025 | 24 | 210 | 4.8 | 4.8 | 0.00 | 0.00 | 0.00 | 59 | 1018.9 |
| 20260906164004 | 24 | 210 | 6.4 | 11.3 | 0.00 | 0.00 | 0.00 | 59 | 1018.9 |
| 20260906163004 | 24 | 234 | 8.0 | 19.3 | 0.00 | 0.00 | 0.00 | 63 | 1018.9 |
| 20260906162525 | 23 | 237 | 8.0 | 11.3 | 0.00 | 0.00 | 0.00 | 65 | 1018.9 |
| 20260906162005 | 23 | 231 | 8.0 | 11.3 | 0.00 | 0.00 | 0.00 | 64 | 1018.9 |
| 20260906161025 | 23 | 219 | 4.8 | 4.8 | 0.00 | 0.00 | 0.00 | 65 | 1019.0 |
| 20260906161005 | 23 | 219 | 6.4 | 12.9 | 0.00 | 0.00 | 0.00 | 65 | 1019.0 |
| 20260906160004 | 23 | 246 | 4.8 | 9.7 | 0.00 | 0.00 | 0.00 | 66 | 1019.0 |
| 20260906155526 | 23 | 197 | 3.2 | 4.8 | 0.00 | 0.00 | 0.00 | 64 | 1019.0 |
| 20260906155011 | 23 | 235 | 6.4 | 12.9 | 0.00 | 0.00 | 0.00 | 65 | 1019.1 |
| 20260906154024 | 23 | 179 | 1.6 | 3.2 | 0.00 | 0.00 | 0.00 | 64 | 1019.2 |
| 20260906154005 | 23 | 179 | 3.2 | 11.3 | 0.00 | 0.00 | 0.00 | 64 | 1019.2 |
| 20260906153004 | 22 | 189 | 3.2 | 9.7 | 0.00 | 0.00 | 0.00 | 66 | 1019.2 |
| 20260906152525 | 22 | 203 | 3.2 | 3.2 | 0.00 | 0.00 | 0.00 | 66 | 1019.4 |
| 20260906152004 | 22 | 238 | 9.7 | 12.9 | 0.00 | 0.00 | 0.00 | 68 | 1019.4 |
| 20260906151025 | 22 | 228 | 1.6 | 4.8 | 0.00 | 0.00 | 0.00 | 70 | 1019.6 |
| 20260906151004 | 22 | 228 | 1.6 | 8.0 | 0.00 | 0.00 | 0.00 | 70 | 1019.6 |
| 20260906145525 | 21 | 233 | 4.8 | 4.8 | 0.00 | 0.00 | 0.00 | 72 | 1019.7 |
| 20260906145006 | 21 | 241 | 6.4 | 11.3 | 0.00 | 0.00 | 0.00 | 75 | 1019.6 |
| 20260906144026 | 21 | 239 | 4.8 | 9.7 | 0.00 | 0.00 | 0.00 | 75 | 1019.4 |
| 20260906144004 | 21 | 239 | 4.8 | 12.9 | 0.00 | 0.00 | 0.00 | 75 | 1019.4 |
| 20260906143004 | 21 | 238 | 8.0 | 14.5 | 0.00 | 0.00 | 0.00 | 77 | 1019.2 |
| 20260906142525 | 21 | 242 | 8.0 | 11.3 | 0.00 | 0.00 | 0.00 | 78 | 1019.2 |
| 20260906142004 | 21 | 227 | 3.2 | 9.7 | 0.00 | 0.00 | 0.00 | 81 | 1019.3 |
| 20260906141026 | 20 | 216 | 1.6 | 4.8 | 0.00 | 0.00 | 0.00 | 83 | 1019.3 |
| 20260906141007 | 20 | 216 | 1.6 | 9.7 | 0.00 | 0.00 | 0.00 | 83 | 1019.3 |
| 20260906140004 | 20 | 228 | 4.8 | 9.7 | 0.00 | 0.00 | 0.00 | 87 | 1019.4 |
| 20260906135525 | 20 | 229 | 3.2 | 4.8 | 0.00 | 0.00 | 0.00 | 88 | 1019.3 |
| 20260906135004 | 20 | 224 | 1.6 | 8.0 | 0.00 | 0.00 | 0.00 | 89 | 1019.3 |
| 20260906134026 | 19 | 231 | 1.6 | 8.0 | 0.00 | 0.00 | 0.00 | 90 | 1019.5 |
| 20260906134004 | 19 | 231 | 1.6 | 8.0 | 0.00 | 0.00 | 0.00 | 90 | 1019.5 |
| 20260906133004 | 19 | 248 | 3.2 | 4.8 | 0.00 | 0.00 | 0.00 | 91 | 1019.6 |
| 20260906132526 | 18 | 175 | 0.0 | 0.0 | 0.00 | 0.00 | 0.00 | 92 | 1019.6 |
| 20260906132004 | 18 | 175 | 1.6 | 4.8 | 0.00 | 0.00 | 0.00 | 93 | 1019.7 |
| 20260906131025 | 18 | 177 | 0.0 | 0.0 | 0.00 | 0.00 | 0.00 | 93 | 1019.6 |
| 20260906131004 | 18 | 177 | 0.0 | 3.2 | 0.00 | 0.00 | 0.00 | 93 | 1019.6 |
| 20260906130004 | 17 | 173 | 1.6 | 4.8 | 0.00 | 0.00 | 0.00 | 94 | 1019.6 |
| 20260906125526 | 17 | 166 | 0.0 | 3.2 | 0.00 | 0.00 | 0.00 | 94 | 1019.6 |
| 20260906125004 | 17 | 160 | 0.0 | 3.2 | 0.00 | 0.00 | 0.00 | 94 | 1019.6 |
| 20260906124024 | 16 | 190 | 0.0 | 1.6 | 0.00 | 0.00 | 0.00 | 94 | 1019.6 |
| 20260906122525 | 16 | 192 | 0.0 | 1.6 | 0.00 | 0.00 | 0.00 | 94 | 1019.7 |
| 20260906122008 | 16 | 192 | 0.0 | 3.2 | 0.00 | 0.00 | 0.00 | 94 | 1019.6 |
| 20260906121025 | 16 | 192 | 0.0 | 0.0 | 0.00 | 0.00 | 0.00 | 94 | 1019.5 |
| 20260906121007 | 16 | 192 | 0.0 | 0.0 | 0.00 | 0.00 | 0.00 | 94 | 1019.5 |
| 20260906120004 | 16 | 192 | 0.0 | 0.0 | 0.00 | 0.00 | 0.00 | 93 | 1019.1 |
| 20260906115525 | 16 | 192 | 0.0 | 0.0 | 0.00 | 0.00 | 0.00 | 93 | 1019.0 |
| 20260906115005 | 16 | 192 | 0.0 | 0.0 | 0.00 | 0.00 | 0.00 | 93 | 1019.0 |
| 20260906114025 | 16 | 192 | 0.0 | 0.0 | 0.00 | 0.00 | 0.00 | 94 | 1018.7 |
| 20260906114004 | 16 | 192 | 0.0 | 0.0 | 0.00 | 0.00 | 0.00 | 94 | 1018.7 |
| 20260906113004 | 16 | 192 | 0.0 | 3.2 | 0.00 | 0.00 | 0.00 | 94 | 1018.4 |
| 20260906112526 | 16 | 192 | 0.0 | 0.0 | 0.00 | 0.00 | 0.00 | 94 | 1018.5 |
| 20260906112004 | 16 | 192 | 0.0 | 3.2 | 0.00 | 0.00 | 0.00 | 94 | 1018.4 |
| 20260906111025 | 16 | 192 | 0.0 | 3.2 | 0.00 | 0.00 | 0.00 | 94 | 1018.2 |
| 20260906111005 | 16 | 192 | 0.0 | 3.2 | 0.00 | 0.00 | 0.00 | 94 | 1018.2 |
| 20260906110004 | 16 | 192 | 0.0 | 3.2 | 0.00 | 0.00 | 0.00 | 94 | 1018.2 |
| 20260906105526 | 16 | 192 | 0.0 | 3.2 | 0.00 | 0.00 | 0.00 | 94 | 1018.3 |
| 20260906105005 | 16 | 192 | 0.0 | 3.2 | 0.00 | 0.00 | 0.00 | 93 | 1018.3 |
| 20260906104026 | 16 | 191 | 0.0 | 0.0 | 0.00 | 0.00 | 0.00 | 94 | 1018.3 |
| 20260906104004 | 16 | 191 | 0.0 | 0.0 | 0.00 | 0.00 | 0.00 | 94 | 1018.3 |
| 20260906103004 | 16 | 191 | 0.0 | 0.0 | 0.00 | 0.00 | 0.00 | 94 | 1018.2 |
| 20260906102526 | 16 | 192 | 0.0 | 0.0 | 0.00 | 0.00 | 0.00 | 94 | 1018.1 |
| 20260906102004 | 16 | 191 | 0.0 | 0.0 | 0.00 | 0.00 | 0.00 | 93 | 1018.2 |
| 20260906101024 | 16 | 191 | 0.0 | 0.0 | 0.00 | 0.00 | 0.00 | 93 | 1018.2 |
| 20260906101005 | 16 | 191 | 0.0 | 1.6 | 0.00 | 0.00 | 0.00 | 93 | 1018.2 |
| 20260906100004 | 15 | 192 | 0.0 | 3.2 | 0.00 | 0.00 | 0.00 | 94 | 1018.2 |
| 20260906095535 | 15 | 229 | 0.0 | 1.6 | 0.00 | 0.00 | 0.00 | 93 | 1018.2 |
| 20260906095006 | 15 | 267 | 0.0 | 0.0 | 0.00 | 0.00 | 0.00 | 92 | 1018.2 |
| 20260906094026 | 16 | 267 | 0.0 | 0.0 | 0.00 | 0.00 | 0.00 | 92 | 1018.2 |
| 20260906094004 | 16 | 267 | 0.0 | 0.0 | 0.00 | 0.00 | 0.00 | 92 | 1018.2 |
| 20260906093004 | 16 | 267 | 0.0 | 0.0 | 0.00 | 0.00 | 0.00 | 92 | 1018.4 |
| 20260906092524 | 16 | 267 | 0.0 | 0.0 | 0.00 | 0.00 | 0.00 | 92 | 1018.3 |
| 20260906092004 | 16 | 267 | 0.0 | 0.0 | 0.00 | 0.00 | 0.00 | 92 | 1018.3 |
| 20260906091024 | 16 | 267 | 0.0 | 0.0 | 0.00 | 0.00 | 0.00 | 92 | 1018.3 |
| 20260906090004 | 16 | 267 | 0.0 | 3.2 | 0.00 | 0.00 | 0.00 | 92 | 1018.2 |
| 20260906085526 | 16 | 267 | 0.0 | 1.6 | 0.00 | 0.00 | 0.00 | 92 | 1018.2 |
| 20260906085007 | 16 | 273 | 0.0 | 3.2 | 0.00 | 0.00 | 0.00 | 92 | 1018.1 |
| 20260906084025 | 16 | 299 | 0.0 | 0.0 | 0.00 | 0.00 | 0.00 | 93 | 1018.4 |
| 20260906084004 | 16 | 299 | 0.0 | 0.0 | 0.00 | 0.00 | 0.00 | 93 | 1018.4 |
| 20260906083004 | 15 | 301 | 0.0 | 0.0 | 0.00 | 0.00 | 0.00 | 92 | 1017.9 |
| 20260906082525 | 15 | 302 | 0.0 | 0.0 | 0.00 | 0.00 | 0.00 | 92 | 1018.1 |
| 20260906082004 | 15 | 302 | 0.0 | 0.0 | 0.00 | 0.00 | 0.00 | 92 | 1018.1 |
| 20260906081025 | 16 | 302 | 0.0 | 0.0 | 0.00 | 0.00 | 0.00 | 92 | 1018.2 |
| 20260906075524 | 16 | 302 | 0.0 | 0.0 | 0.00 | 0.00 | 0.00 | 91 | 1018.0 |
| 20260906075004 | 16 | 302 | 0.0 | 0.0 | 0.00 | 0.00 | 0.00 | 91 | 1018.1 |
| 20260906074025 | 16 | 302 | 0.0 | 0.0 | 0.00 | 0.00 | 0.00 | 91 | 1018.1 |
| 20260906074004 | 16 | 302 | 0.0 | 0.0 | 0.00 | 0.00 | 0.00 | 91 | 1018.1 |
| 20260906072526 | 16 | 302 | 0.0 | 0.0 | 0.00 | 0.00 | 0.00 | 92 | 1018.0 |
| 20260906072004 | 16 | 302 | 0.0 | 0.0 | 0.00 | 0.00 | 0.00 | 92 | 1018.0 |
| 20260906071025 | 16 | 302 | 0.0 | 0.0 | 0.00 | 0.00 | 0.00 | 92 | 1017.8 |
| 20260906071004 | 16 | 302 | 0.0 | 0.0 | 0.00 | 0.00 | 0.00 | 92 | 1017.8 |
| 20260906070004 | 16 | 302 | 0.0 | 0.0 | 0.00 | 0.00 | 0.00 | 91 | 1017.8 |
| 20260906065525 | 16 | 302 | 0.0 | 0.0 | 0.00 | 0.00 | 0.00 | 92 | 1018.0 |
| 20260906064024 | 16 | 302 | 0.0 | 0.0 | 0.00 | 0.00 | 0.00 | 91 | 1018.1 |
| 20260906064004 | 16 | 302 | 0.0 | 0.0 | 0.00 | 0.00 | 0.00 | 91 | 1018.1 |
| 20260906063004 | 16 | 302 | 0.0 | 0.0 | 0.00 | 0.00 | 0.00 | 91 | 1018.4 |
| 20260906062524 | 16 | 302 | 0.0 | 0.0 | 0.00 | 0.00 | 0.00 | 91 | 1018.3 |
| 20260906062005 | 16 | 302 | 0.0 | 0.0 | 0.00 | 0.00 | 0.00 | 91 | 1018.2 |
| 20260906061024 | 16 | 302 | 0.0 | 0.0 | 0.00 | 0.00 | 0.00 | 91 | 1018.2 |
| 20260906061004 | 16 | 302 | 0.0 | 0.0 | 0.00 | 0.00 | 0.00 | 91 | 1018.2 |
| 20260906060004 | 16 | 302 | 0.0 | 0.0 | 0.00 | 0.00 | 0.00 | 90 | 1018.0 |
| 20260906055525 | 16 | 302 | 0.0 | 0.0 | 0.00 | 0.00 | 0.00 | 89 | 1018.0 |
| 20260906055004 | 17 | 302 | 0.0 | 3.2 | 0.00 | 0.00 | 0.00 | 90 | 1017.9 |
| 20260906054025 | 16 | 306 | 0.0 | 0.0 | 0.00 | 0.00 | 0.00 | 90 | 1017.7 |
| 20260906052524 | 16 | 306 | 0.0 | 0.0 | 0.00 | 0.00 | 0.00 | 89 | 1017.5 |
| 20260906052004 | 16 | 306 | 0.0 | 0.0 | 0.00 | 0.00 | 0.00 | 89 | 1017.5 |
| 20260906051025 | 17 | 306 | 0.0 | 0.0 | 0.00 | 0.00 | 0.00 | 89 | 1017.5 |
| 20260906050003 | 17 | 306 | 0.0 | 0.0 | 0.00 | 0.00 | 0.00 | 89 | 1017.6 |
| 20260906045526 | 17 | 306 | 0.0 | 0.0 | 0.00 | 0.03 | 0.03 | 89 | 1017.7 |
| 20260906045004 | 17 | 306 | 0.0 | 0.0 | 0.00 | 0.03 | 0.03 | 88 | 1017.7 |
| 20260906044026 | 17 | 306 | 0.0 | 0.0 | 0.00 | 0.03 | 0.03 | 88 | 1017.7 |
| 20260906043004 | 17 | 306 | 0.0 | 3.2 | 0.00 | 0.03 | 0.03 | 88 | 1017.7 |
| 20260906042526 | 17 | 306 | 0.0 | 0.0 | 0.00 | 0.03 | 0.03 | 87 | 1017.7 |
| 20260906042003 | 17 | 306 | 0.0 | 4.8 | 0.00 | 0.03 | 0.03 | 87 | 1017.5 |
| 20260906041024 | 17 | 13 | 0.0 | 3.2 | 0.00 | 0.03 | 0.03 | 86 | 1017.6 |
| 20260906041003 | 17 | 13 | 0.0 | 3.2 | 0.00 | 0.03 | 0.03 | 86 | 1017.6 |
| 20260906040004 | 17 | 40 | 0.0 | 3.2 | 0.00 | 0.03 | 0.03 | 86 | 1017.3 |
| 20260906035524 | 17 | 40 | 0.0 | 0.0 | 0.00 | 0.03 | 0.03 | 86 | 1017.3 |
| 20260906035004 | 17 | 40 | 0.0 | 3.2 | 0.00 | 0.03 | 0.03 | 86 | 1017.3 |
| 20260906034024 | 17 | 47 | 0.0 | 3.2 | 0.00 | 0.03 | 0.03 | 86 | 1017.2 |
| 20260906034004 | 17 | 47 | 0.0 | 3.2 | 0.00 | 0.03 | 0.03 | 86 | 1017.2 |
| 20260906033003 | 17 | 47 | 0.0 | 3.2 | 0.00 | 0.03 | 0.03 | 85 | 1016.8 |
| 20260906032524 | 17 | 48 | 0.0 | 1.6 | 0.00 | 0.03 | 0.03 | 85 | 1016.7 |
| 20260906031024 | 17 | 49 | 0.0 | 1.6 | 0.00 | 0.03 | 0.03 | 85 | 1016.7 |
| 20260906031011 | 17 | 49 | 0.0 | 8.0 | 0.00 | 0.03 | 0.03 | 85 | 1016.7 |
| 20260906025524 | 17 | 44 | 0.0 | 3.2 | 0.00 | 0.03 | 0.03 | 86 | 1016.7 |
| 20260906025004 | 17 | 55 | 0.0 | 0.0 | 0.00 | 0.03 | 0.03 | 85 | 1016.7 |
| 20260906024025 | 17 | 55 | 0.0 | 0.0 | 0.00 | 0.03 | 0.03 | 85 | 1016.6 |
| 20260906024004 | 17 | 55 | 0.0 | 3.2 | 0.00 | 0.03 | 0.03 | 85 | 1016.6 |
| 20260906022525 | 17 | 55 | 0.0 | 0.0 | 0.00 | 0.03 | 0.03 | 85 | 1016.5 |
| 20260906022007 | 18 | 55 | 0.0 | 3.2 | 0.00 | 0.03 | 0.03 | 85 | 1016.3 |
| 20260906021026 | 18 | 55 | 0.0 | 1.6 | 0.00 | 0.03 | 0.03 | 85 | 1016.4 |
| 20260906021004 | 18 | 55 | 0.0 | 3.2 | 0.00 | 0.03 | 0.03 | 85 | 1016.4 |
| 20260906020004 | 18 | 51 | 0.0 | 3.2 | 0.00 | 0.03 | 0.03 | 85 | 1016.4 |
| 20260906015524 | 18 | 51 | 0.0 | 0.0 | 0.00 | 0.03 | 0.03 | 84 | 1016.4 |
| 20260906015004 | 18 | 51 | 0.0 | 3.2 | 0.00 | 0.03 | 0.03 | 84 | 1016.4 |
| 20260906014025 | 18 | 51 | 0.0 | 0.0 | 0.00 | 0.03 | 0.03 | 85 | 1016.3 |
| 20260906014004 | 18 | 51 | 0.0 | 0.0 | 0.00 | 0.03 | 0.03 | 85 | 1016.3 |
| 20260906013003 | 18 | 51 | 0.0 | 3.2 | 0.00 | 0.03 | 0.03 | 84 | 1016.3 |
| 20260906012413 | 18 | 51 | 0.0 | 0.0 | 0.00 | 0.03 | 0.03 | 83 | 1016.3 |
| 20260906012007 | 18 | 51 | 0.0 | 3.2 | 0.00 | 0.03 | 0.03 | 83 | 1016.4 |
| 20260906011007 | 18 | 53 | 0.0 | 1.6 | 0.00 | 0.03 | 0.03 | 82 | 1016.3 |
| 20260906010911 | 18 | 53 | 0.0 | 0.0 | 0.00 | 0.03 | 0.03 | 82 | 1016.2 |
| 20260906010004 | 19 | 53 | 0.0 | 3.2 | 0.00 | 0.03 | 0.03 | 82 | 1016.4 |
| 20260906005412 | 19 | 50 | 0.0 | 1.6 | 0.00 | 0.03 | 0.03 | 81 | 1016.4 |
| 20260906005003 | 20 | 61 | 0.0 | 4.8 | 0.00 | 0.03 | 0.03 | 80 | 1016.4 |
| 20260906004003 | 20 | 45 | 0.0 | 4.8 | 0.00 | 0.03 | 0.03 | 80 | 1016.4 |
| 20260906003911 | 20 | 33 | 0.0 | 1.6 | 0.00 | 0.03 | 0.03 | 79 | 1016.4 |
| 20260906003003 | 20 | 50 | 1.6 | 4.8 | 0.00 | 0.03 | 0.03 | 78 | 1016.3 |
| 20260906002422 | 21 | 71 | 0.0 | 3.2 | 0.00 | 0.03 | 0.03 | 76 | 1016.2 |
| 20260906001004 | 21 | 69 | 1.6 | 8.0 | 0.00 | 0.03 | 0.03 | 75 | 1016.2 |
| 20260906000912 | 21 | 24 | 1.6 | 3.2 | 0.00 | 0.03 | 0.03 | 74 | 1016.3 |
| 20260906000005 | 22 | 52 | 1.6 | 8.0 | 0.00 | 0.03 | 0.03 | 73 | 1016.4 |
| 20260905235520 | 22 | 58 | 3.2 | 4.8 | 0.00 | 0.03 | 0.03 | 72 | 1016.1 |
| 20260905235004 | 22 | 53 | 1.6 | 4.8 | 0.00 | 0.03 | 0.03 | 72 | 1016.0 |
| 20260905234004 | 23 | 46 | 1.6 | 11.3 | 0.00 | 0.03 | 0.03 | 72 | 1016.2 |
| 20260905233917 | 23 | 72 | 1.6 | 8.0 | 0.00 | 0.03 | 0.03 | 71 | 1016.2 |
| 20260905233005 | 23 | 32 | 1.6 | 8.0 | 0.00 | 0.03 | 0.03 | 72 | 1016.2 |
| 20260905232414 | 23 | 31 | 0.0 | 3.2 | 0.00 | 0.03 | 0.03 | 72 | 1016.1 |
| 20260905230913 | 23 | 122 | 1.6 | 1.6 | 0.00 | 0.03 | 0.03 | 72 | 1016.0 |
| 20260905230005 | 24 | 78 | 1.6 | 9.7 | 0.00 | 0.03 | 0.03 | 72 | 1016.1 |
| 20260905225413 | 25 | 63 | 3.2 | 4.8 | 0.00 | 0.03 | 0.03 | 72 | 1016.0 |
| 20260905225004 | 24 | 325 | 1.6 | 9.7 | 0.00 | 0.03 | 0.03 | 74 | 1016.0 |
| 20260905224004 | 25 | 62 | 1.6 | 8.0 | 0.00 | 0.03 | 0.03 | 72 | 1016.0 |
| 20260905223913 | 24 | 15 | 1.6 | 3.2 | 0.00 | 0.03 | 0.03 | 72 | 1016.0 |
| 20260905223004 | 25 | 3 | 1.6 | 11.3 | 0.00 | 0.03 | 0.03 | 73 | 1016.0 |
| 20260905222413 | 25 | 45 | 1.6 | 3.2 | 0.00 | 0.03 | 0.03 | 72 | 1016.1 |
| 20260905221011 | 25 | 48 | 1.6 | 11.3 | 0.00 | 0.03 | 0.03 | 72 | 1016.2 |
| 20260905220913 | 25 | 35 | 1.6 | 4.8 | 0.00 | 0.03 | 0.03 | 73 | 1016.1 |
| 20260905220004 | 25 | 71 | 3.2 | 11.3 | 0.00 | 0.03 | 0.03 | 72 | 1016.1 |
| 20260905215414 | 25 | 67 | 3.2 | 4.8 | 0.00 | 0.03 | 0.03 | 71 | 1016.0 |
| 20260905215008 | 25 | 55 | 1.6 | 8.0 | 0.00 | 0.03 | 0.03 | 71 | 1016.1 |
| 20260905214005 | 25 | 9 | 1.6 | 4.8 | 0.00 | 0.03 | 0.03 | 72 | 1016.2 |
| 20260905213913 | 25 | 353 | 0.0 | 3.2 | 0.00 | 0.03 | 0.03 | 72 | 1016.2 |
| 20260905213005 | 25 | 294 | 1.6 | 4.8 | 0.00 | 0.03 | 0.03 | 71 | 1016.4 |
| 20260905212412 | 25 | 289 | 1.6 | 4.8 | 0.00 | 0.03 | 0.03 | 70 | 1016.4 |
| 20260905212005 | 24 | 294 | 1.6 | 11.3 | 0.00 | 0.03 | 0.03 | 72 | 1016.3 |
| 20260905211004 | 24 | 289 | 3.2 | 8.0 | 0.00 | 0.03 | 0.03 | 71 | 1016.3 |
| 20260905210913 | 24 | 289 | 1.6 | 4.8 | 0.00 | 0.03 | 0.03 | 71 | 1016.3 |
| 20260905210004 | 24 | 258 | 1.6 | 8.0 | 0.00 | 0.03 | 0.03 | 72 | 1016.3 |
| 20260905205412 | 24 | 263 | 1.6 | 3.2 | 0.00 | 0.03 | 0.03 | 72 | 1016.4 |
| 20260905205004 | 25 | 129 | 0.0 | 9.7 | 0.00 | 0.03 | 0.03 | 74 | 1016.5 |
| 20260905203912 | 25 | 15 | 1.6 | 3.2 | 0.00 | 0.03 | 0.03 | 72 | 1016.9 |
| 20260905203004 | 25 | 68 | 4.8 | 16.1 | 0.00 | 0.03 | 0.03 | 72 | 1016.7 |
| 20260905202412 | 25 | 62 | 1.6 | 9.7 | 0.00 | 0.03 | 0.03 | 72 | 1016.8 |
| 20260905202012 | 25 | 272 | 1.6 | 9.7 | 0.00 | 0.03 | 0.03 | 70 | 1016.8 |
| 20260905201005 | 25 | 356 | 1.6 | 4.8 | 0.00 | 0.03 | 0.03 | 70 | 1016.8 |
| 20260905200914 | 25 | 261 | 1.6 | 1.6 | 0.00 | 0.03 | 0.03 | 70 | 1016.8 |
| 20260905200005 | 25 | 318 | 3.2 | 8.0 | 0.00 | 0.03 | 0.03 | 71 | 1016.9 |
| 20260905195413 | 24 | 258 | 3.2 | 8.0 | 0.00 | 0.03 | 0.03 | 74 | 1016.9 |
| 20260905195005 | 23 | 242 | 4.8 | 9.7 | 0.00 | 0.03 | 0.03 | 74 | 1016.8 |
| 20260905194008 | 23 | 259 | 1.6 | 4.8 | 0.00 | 0.03 | 0.03 | 75 | 1016.7 |
| 20260905193912 | 23 | 245 | 1.6 | 4.8 | 0.00 | 0.03 | 0.03 | 76 | 1016.7 |
| 20260905192418 | 24 | 278 | 4.8 | 9.7 | 0.00 | 0.03 | 0.03 | 74 | 1016.6 |
| 20260905192004 | 23 | 327 | 1.6 | 11.3 | 0.00 | 0.03 | 0.03 | 73 | 1016.6 |
| 20260905191004 | 23 | 268 | 1.6 | 11.3 | 0.00 | 0.03 | 0.03 | 75 | 1016.6 |
| 20260905190913 | 23 | 255 | 0.0 | 8.0 | 0.00 | 0.03 | 0.03 | 73 | 1016.6 |
| 20260905190004 | 23 | 217 | 1.6 | 4.8 | 0.00 | 0.03 | 0.03 | 73 | 1016.6 |
| 20260905185420 | 23 | 217 | 3.2 | 4.8 | 0.00 | 0.03 | 0.03 | 76 | 1016.9 |
| 20260905185004 | 23 | 213 | 1.6 | 8.0 | 0.00 | 0.03 | 0.03 | 73 | 1017.0 |
| 20260905184012 | 23 | 243 | 0.0 | 4.8 | 0.00 | 0.03 | 0.03 | 74 | 1017.0 |
| 20260905183917 | 23 | 243 | 0.0 | 3.2 | 0.00 | 0.03 | 0.03 | 74 | 1017.0 |
| 20260905183005 | 23 | 250 | 3.2 | 4.8 | 0.00 | 0.03 | 0.03 | 75 | 1017.1 |
| 20260905182412 | 22 | 276 | 0.0 | 0.0 | 0.00 | 0.03 | 0.03 | 75 | 1017.0 |
| 20260905182007 | 22 | 276 | 0.0 | 3.2 | 0.00 | 0.03 | 0.03 | 76 | 1017.0 |
| 20260905181004 | 22 | 279 | 1.6 | 3.2 | 0.00 | 0.03 | 0.03 | 76 | 1017.0 |
| 20260905180913 | 22 | 280 | 0.0 | 3.2 | 0.00 | 0.03 | 0.03 | 76 | 1016.9 |
| 20260905180004 | 22 | 287 | 0.0 | 3.2 | 0.00 | 0.03 | 0.03 | 77 | 1017.1 |
| 20260905175419 | 22 | 289 | 1.6 | 3.2 | 0.00 | 0.03 | 0.03 | 78 | 1017.1 |
| 20260905175011 | 22 | 293 | 1.6 | 4.8 | 0.00 | 0.03 | 0.03 | 79 | 1017.1 |
| 20260905174005 | 22 | 241 | 3.2 | 4.8 | 0.00 | 0.03 | 0.03 | 79 | 1017.4 |